Lid_Strength_Index
4 4 4 4 4 4 3 4 5 6 6 6 6 6 7 7 7 8 9 10 10 10
5 5 4 4 4 4 3 2 4 6 6 6 6 6 7 7 8 8 9 9 10 10
4 4 3 3 3 4 4 3 3 4 5 6 6 6 7 7 8 8 9 9 9 10
3 2 2 2 2 3 5 3 2 4 5 6 6 6 7 7 8 8 9 9 9 9
2 1 2 2 2 1 3 4 3 3 4 5 5 6 7 8 8 8 9 9 9 9
2 2 3 3 2 1 1 2 3 3 4 4 5 6 7 7 8 8 8 9 9 9
2 2 2 3 2 1 1 2 2 4 3 4 5 6 6 7 8 8 8 8 9 9
3 1 1 2 2 1 1 2 2 3 4 4 5 6 7 7 9 9 9 9 8 9
2 2 2 1 1 1 2 3 3 4 5 5 5 3 4 7 9 9 9 10 10 9
2 2 2 2 2 2 2 3 4 4 5 6 6 3 3 4 8 9 10 10 10 10
2 2 2 3 3 3 3 4 5 5 5 6 7 3 3 4 9 10 10 10 11 11
2 2 3 3 3 4 4 5 5 5 5 7 7 3 3 6 10 10 11 11 11 11
2 2 3 3 3 4 4 5 5 6 6 6 8 4 3 8 9 10 11 11 10 7
2 2 3 3 3 4 4 6 6 6 6 7 7 5 4 5 9 10 10 11 10 9